Regional Weather Roundup
Issued by NWS Newport/Morehead, NC

Current Version | Previous Version | Text Only | Print | Product List | Glossary On
Versions: 1 2 3 4 5 6 7 8 9 10 11 12 13 14 15 16 17 18 19 20 21 22 23 24 25 26 27 28 29 30 31 32 33 34 35 36 37 38 39 40 41 42 43 44 45 46 47 48 49 50
787
ASUS42 KMHX 291513
RWRMHX
WEATHER ROUNDUP FOR EASTERN NORTH CAROLINA
NATIONAL WEATHER SERVICE NEWPORT/MOREHEAD CITY NC
1100 AM EDT SUN MAY 29 2016

NOTE: "FAIR" INDICATES FEW OR NO CLOUDS BELOW 12,000 FEET
WITH NO SIGNIFICANT WEATHER AND/OR OBSTRUCTIONS TO VISIBILITY

NCZ015>017-031-032-045>047-102-103-291600-
NORTH COAST

CITY           SKY/WX    TMP DP  RH WIND       PRES   REMARKS
EDENTON        LGT RAIN N/A N/A N/A SE10G20   30.12S
ELIZABETH CITY RAIN      76  72  87 SE13      30.13R FOG
KITTY HAWK     CLOUDY    79  71  75 SE7       30.12S
MANTEO         NOT AVBL

$$

NCZ045>047-081-094-103-104-291600-
CENTRAL COAST

CITY           SKY/WX    TMP DP  RH WIND       PRES   REMARKS
FRISCO         SUNNY     82  73  74 SE12      30.11S

$$

NCZ095-097-098-100-101-291600-
SOUTHERN COAST

CITY           SKY/WX    TMP DP  RH WIND       PRES   REMARKS
BEAUFORT       CLOUDY    80  75  84 SE14      30.08S
CEDAR ISLAND   NOT AVBL
JACKSONVILLE   PTSUNNY   81  73  76 SE15      30.05S
PINEY ISLAND   CLOUDY   N/A N/A N/A S8        30.09S
WILMINGTON     PTSUNNY   81  72  74 SE16G23   30.04S


$$

NCZ011>013-027>030-043-044-078>080-089-090>093-098-291600-
COASTAL PLAIN

CITY           SKY/WX    TMP DP  RH WIND       PRES   REMARKS
AHOSKIE        LGT RAIN  72  71  96 NE3       30.12S
CLINTON        CLOUDY    76  75  96 E5        30.07S
ELIZABETHTOWN  MOSUNNY   78  75  92 CALM      30.04S
GOLDSBORO      PTSUNNY   73  73 100 NE7       30.06F
GREENVILLE     LGT RAIN  73  73 100 E5        30.11S
HAVELOCK       RAIN      78  75  90 SE9       30.08F VSB 1
KENANSVILLE    CLOUDY    74  73  95 CALM      30.08S
KINSTON        LGT RAIN  75  73  94 E6        30.08F
NEW BERN       CLOUDY    77  73  87 VRB3      30.09S
RICHLANDS      CLOUDY    80  75  84 SE10      30.06S
ROCKY MOUNT    LGT RAIN  73  72  96 NE5       30.09F FOG
WASHINGTON     LGT RAIN  73  71  94 SE3       30.10R
WHITEVILLE     PTSUNNY   80  74  81 E9        30.01S

$$

AMZ130-135-150-152-154-156-158-170-250-252-270-ANZ085-086-088-633-658-670-291600-
MARINE OBSERVATIONS

STATION/POSITION TIME  TEMP    WIND        PRES    WAVE   SWELL
                       AIR SEA DIR/SP/G            HT/PER HT/PER
                 (UTC) (F)     (DEG/KT/KT) (MB)    (FT/S) (FT/S)
CHESAPEAKE LIGHT 1500   71     120/ 14/ 15 1021.0
64 E VA BEACH    1450   70 64  120/  6/  6 1020.8    4/ 8   3/ 8
DUCK             1400   73 62  110/ 12/ 13 1019.5
2 E DUCK         1411      69                N/A     3/ 8
OREGON INLET     1400   77 70  120/  9/ 12 1019.9
13E OREGON INLT  1500      70                N/A     4/ 6   3/ 6
HATTERAS CG      1400   78 76  140/ 12/ 15 1018.9
DIAMOND BUOY     1450   79 76  150/ 17/ 19 1019.3    6/ 8   2/12
CAPE LOOKOUT     1500   76     150/ 11/ 12 1018.3
BEAUFORT LAB     1400   74 75  150/  8/ 13 1017.8
30 SE NEW RVR IN 1425      75                N/A     6/ 6
27 SE WRIGHTSVLE 1408   79 75  150/ 14/ 17 1017.4
5 SE WRIGHTSVLE  1408   77 75  140/ 10/ 14 1018.0
225 S CAPE HAT   1450   76 76  120/ 14/ 16 1019.4    4/ 6   3/ 6
41 SE CHARLESTON 1450   74 78  190/ 19/ 23 1013.9    6/ 8   3/ 8

$$




USA.gov is the U.S. government's official web portal to all federal, state and local government web resources and services.